New Bern, NC

2:56 AM EDT on October 22, 2019 (GMT -0400)
Craven County Regional

Weather History for KEWN - August, 2019

Change the Weather History Date:

Friday, August 16, 2019

  Actual Average Record
Temperature  
Mean Temperature 78 °F 79 °F  
Max Temperature 82 °F 88 °F 99 °F (1954)
Min Temperature 73 °F 71 °F 60 °F (1967)
Degree Days  
Heating Degree Days 0 0  
Month to date heating degree days 0 0  
Since 1 June heating degree days 0 1  
Since 1 July heating degree days 0 0  
Cooling Degree Days 12 14  
Month to date cooling degree days 255 237  
Year to date cooling degree days 1574 1327  
Since 1 June cooling degree days 1155 1084  
Growing Degree Days 28 (Base 50)    
Moisture  
Dew Point 76 °F    
Average Humidity 98    
Maximum Humidity 100    
Minimum Humidity 91    
Precipitation  
Precipitation 2.10 in 0.21 in 1.56 in (1973)
Month to date precipitation 5.50 3.54  
Year to date precipitation 28.44 33.69  
Snow  
Snow 0.00 in - - ()
Month to date snowfall 0.0  
Since 1 July snowfall 0.0  
Snow Depth 0.00 in    
Sea Level Pressure  
Sea Level Pressure 29.99 in    
Wind  
Wind Speed 4 mph ()    
Max Wind Speed 16 mph    
Max Gust Speed 20 mph    
Visibility 7.2 miles    
Events Fog , Rain , Thunderstorm    
T = Trace of Precipitation, MM = Missing Value Source: Averaged Metar Reports

Daily Weather History Graph

Daily Weather History Graph

Search for Another Location

Airport or City:

Astronomy

Aug. 16, 2019 Rise Set
Actual Time 6:28 AM EDT 7:55 PM EDT
Civil Twilight 6:01 AM EDT 8:22 PM EDT
Nautical Twilight 5:29 AM EDT 8:54 PM EDT
Astronomical Twilight 4:56 AM EDT 9:27 PM EDT
Moon 8:55 PM EDT (8/16) 7:18 AM EDT (8/16)
Length of Visible Light 14h 20m
Length of Day
13h 27m
Full, 99% of the Moon is Illuminated
Aug 16
Full
Aug 23
Last Quarter
Aug 30
New
Sep 5
First Quarter
Sep 14
Full

Hourly Weather History & Observations

Time (EDT) Temp. Heat Index Dew Point Humidity Pressure Visibility Wind Dir Wind Speed Gust Speed Precip Events Conditions
12:49 AM 78.8 °F - 77.0 °F 94% 29.97 in 10.0 mi NNW 3.5 mph - 0.00 in   Mostly Cloudy
12:54 AM 78.1 °F - 77.0 °F 96% 29.97 in 10.0 mi NNW 3.5 mph - 0.00 in   Mostly Cloudy
1:01 AM 78.1 °F - 78.1 °F 100% 29.97 in 10.0 mi Calm Calm - N/A   Scattered Clouds
1:22 AM 78.1 °F - 78.1 °F 100% 29.97 in 10.0 mi Calm Calm - N/A   Mostly Cloudy
1:54 AM 78.1 °F - 77.0 °F 96% 29.97 in 10.0 mi NNW 3.5 mph - N/A   Overcast
2:16 AM 78.1 °F - 77.0 °F 96% 29.97 in 10.0 mi Calm Calm - N/A   Mostly Cloudy
2:35 AM 78.1 °F - 77.0 °F 96% 29.96 in 10.0 mi Calm Calm - N/A   Overcast
2:54 AM 78.1 °F - 77.0 °F 96% 29.96 in 10.0 mi SW 3.5 mph - N/A   Overcast
3:12 AM 77.0 °F - 77.0 °F 100% 29.95 in 10.0 mi West 3.5 mph - N/A   Scattered Clouds
3:54 AM 77.0 °F - 75.9 °F 96% 29.95 in 10.0 mi Calm Calm - N/A   Partly Cloudy
4:54 AM 77.0 °F - 75.9 °F 96% 29.96 in 10.0 mi Calm Calm - N/A   Clear
5:54 AM 77.0 °F - 77.0 °F 100% 29.96 in 10.0 mi Calm Calm - N/A   Clear
6:54 AM 75.9 °F - 75.9 °F 100% 29.97 in 7.0 mi Calm Calm - N/A   Scattered Clouds
7:08 AM 77.0 °F - 77.0 °F 100% 29.98 in 7.0 mi SSW 3.5 mph - N/A Thunderstorm Partly Cloudy
7:23 AM 77.0 °F - 77.0 °F 100% 29.98 in 8.0 mi SSW 3.5 mph - N/A   Clear
7:54 AM 78.1 °F - 77.0 °F 96% 30.00 in 9.0 mi SSE 3.5 mph - N/A   Partly Cloudy
8:06 AM 78.1 °F - 77.0 °F 96% 30.00 in 9.0 mi South 4.6 mph - N/A   Scattered Clouds
8:54 AM 79.0 °F - 78.1 °F 97% 30.00 in 10.0 mi South 4.6 mph - 0.00 in Rain Light Rain
9:13 AM 80.1 °F 86.7 °F 79.0 °F 96% 30.00 in 7.0 mi South 3.5 mph - 0.00 in Rain Light Rain
9:20 AM 80.1 °F 86.7 °F 79.0 °F 96% 30.00 in 8.0 mi SSW 5.8 mph - 0.00 in Rain Light Rain
9:35 AM 80.1 °F 86.7 °F 79.0 °F 96% 30.00 in 2.5 mi WSW 5.8 mph - 0.03 in Rain Heavy Rain
9:44 AM 78.1 °F - 77.0 °F 96% 30.01 in 1.5 mi WSW 10.4 mph - 0.11 in Rain Heavy Rain
9:51 AM 78.8 °F - 77.0 °F 94% 30.00 in 1.0 mi West 4.6 mph - 0.18 in Rain , Thunderstorm Heavy Thunderstorms and Rain
9:52 AM 78.1 °F - 77.0 °F 96% 29.99 in 1.0 mi West 4.6 mph - 0.18 in Rain , Thunderstorm Heavy Thunderstorms and Rain
9:58 AM 78.1 °F - 77.0 °F 96% 29.99 in 3.0 mi SW 3.5 mph - 0.00 in Rain , Thunderstorm Light Thunderstorms and Rain
10:18 AM 79.0 °F - 78.1 °F 97% 30.00 in 10.0 mi Calm Calm - 0.00 in Thunderstorm Mostly Cloudy
10:51 AM 80.6 °F 88.1 °F 78.8 °F 94% 30.00 in 10.0 mi ENE 4.6 mph - 0.00 in   Mostly Cloudy
10:54 AM 81.0 °F 88.6 °F 78.1 °F 91% 30.01 in 10.0 mi NE 5.8 mph - 0.00 in   Mostly Cloudy
11:18 AM 80.1 °F 86.4 °F 78.1 °F 94% 30.00 in 10.0 mi ENE 10.4 mph - N/A Thunderstorm Overcast
11:34 AM 79.0 °F - 78.1 °F 97% 30.00 in 8.0 mi ESE 6.9 mph - N/A Thunderstorm Overcast
11:49 AM 77.0 °F - 75.2 °F 94% 30.02 in 3.0 mi SE 5.8 mph - 0.09 in Rain , Thunderstorm Light Thunderstorms and Rain
11:54 AM 77.0 °F - 75.9 °F 96% 30.02 in 2.0 mi Calm Calm - 0.13 in Rain , Thunderstorm Heavy Thunderstorms and Rain
12:27 PM 77.0 °F - 75.9 °F 96% 30.01 in 10.0 mi NNE 8.1 mph - 0.00 in   Overcast
12:36 PM 77.0 °F - 75.9 °F 96% 30.01 in 10.0 mi NNE 11.5 mph - 0.00 in   Overcast
12:47 PM 75.9 °F - 75.9 °F 100% 30.01 in 1.8 mi NE 12.7 mph - 0.08 in Rain Heavy Rain
12:54 PM 75.9 °F - 75.9 °F 100% 30.01 in 2.0 mi NE 9.2 mph - 0.08 in Rain , Thunderstorm Light Rain
12:58 PM 75.9 °F - 75.9 °F 100% 30.01 in 9.0 mi NNE 11.5 mph - 0.00 in Rain , Thunderstorm Light Rain
1:04 PM 75.9 °F - 75.9 °F 100% 30.00 in 10.0 mi NNE 12.7 mph - 0.00 in Thunderstorm Thunderstorm
1:21 PM 75.0 °F - 75.0 °F 100% 30.00 in 1.2 mi NNW 8.1 mph 19.6 mph 0.12 in Rain , Thunderstorm Heavy Thunderstorms and Rain
1:23 PM 75.0 °F - 75.0 °F 100% 30.01 in 0.8 mi North 10.4 mph 18.4 mph 0.25 in Rain , Thunderstorm Heavy Thunderstorms and Rain
1:28 PM 73.9 °F - 73.9 °F 100% 30.01 in 0.2 mi North 15.0 mph - 0.63 in Fog , Rain , Thunderstorm Heavy Thunderstorms and Rain
1:37 PM 73.9 °F - 73.9 °F 100% 30.01 in 0.5 mi NNE 12.7 mph - 1.02 in Fog , Rain , Thunderstorm Heavy Thunderstorms and Rain
1:48 PM 73.4 °F - 73.4 °F 100% 30.01 in 1.0 mi East 4.6 mph - 1.18 in Rain , Thunderstorm Heavy Thunderstorms and Rain
1:54 PM 73.9 °F - 73.9 °F 100% 30.01 in 2.0 mi East 3.5 mph - 1.21 in Rain , Thunderstorm Heavy Thunderstorms and Rain
1:59 PM 75.0 °F - 75.0 °F 100% 30.01 in 1.8 mi Calm Calm - 0.03 in Rain , Thunderstorm Heavy Rain
2:08 PM 75.0 °F - 75.0 °F 100% 30.01 in 4.0 mi East 3.5 mph - 0.03 in Rain Rain
2:20 PM 75.0 °F - 75.0 °F 100% 30.02 in 0.8 mi Calm Calm - 0.17 in Rain , Thunderstorm Heavy Rain
2:31 PM 75.0 °F - 75.0 °F 100% 30.01 in 2.5 mi NE 4.6 mph - 0.23 in Rain , Thunderstorm Light Rain
2:38 PM 75.0 °F - 75.0 °F 100% 30.01 in 10.0 mi ENE 4.6 mph - 0.24 in Rain , Thunderstorm Light Rain
2:47 PM 75.0 °F - 75.0 °F 100% 30.02 in 9.0 mi East 4.6 mph - 0.25 in Rain Rain
2:54 PM 75.0 °F - 75.0 °F 100% 30.01 in 6.0 mi East 5.8 mph - 0.27 in Rain Rain
3:40 PM 75.9 °F - 75.9 °F 100% 29.99 in 10.0 mi East 5.8 mph - 0.08 in Rain Light Rain
3:51 PM 75.2 °F - 75.2 °F 100% 29.99 in 10.0 mi SE 3.5 mph - 0.09 in Rain Light Rain
3:54 PM 75.9 °F - 75.9 °F 100% 29.99 in 10.0 mi SE 4.6 mph - 0.10 in Rain Rain
4:54 PM 75.9 °F - 75.9 °F 100% 29.98 in 5.0 mi SE 10.4 mph - 0.11 in Rain Rain
5:33 PM 77.0 °F - 77.0 °F 100% 29.99 in 10.0 mi Calm Calm - 0.01 in Rain Light Rain
5:42 PM 77.0 °F - 75.9 °F 96% 29.99 in 10.0 mi Calm Calm - 0.01 in Rain Light Rain
5:54 PM 77.0 °F - 77.0 °F 100% 29.98 in 10.0 mi SE 4.6 mph - 0.01 in Rain Light Rain
6:54 PM 77.0 °F - 77.0 °F 100% 29.97 in 10.0 mi Calm Calm - 0.00 in   Partly Cloudy
7:08 PM 77.0 °F - 75.9 °F 96% 29.97 in 10.0 mi Calm Calm - 0.00 in Rain Light Rain
8:30 PM 75.9 °F - 75.9 °F 100% 29.98 in 10.0 mi SSE 3.5 mph - 0.01 in Rain Light Rain
8:54 PM 75.9 °F - 75.9 °F 100% 29.98 in 10.0 mi ESE 3.5 mph - 0.01 in Rain Light Rain
9:25 PM 75.9 °F - 75.9 °F 100% 29.98 in 10.0 mi SE 5.8 mph - 0.00 in   Mostly Cloudy
9:54 PM 75.9 °F - 75.9 °F 100% 29.99 in 10.0 mi SSE 5.8 mph - 0.00 in Rain Light Rain
10:49 PM 75.2 °F - 75.2 °F 100% 29.99 in 10.0 mi SSE 4.6 mph - 0.00 in Rain Light Rain
10:54 PM 75.0 °F - 75.0 °F 100% 29.99 in 10.0 mi South 3.5 mph - 0.00 in Rain Light Rain
11:54 PM 75.0 °F - 75.0 °F 100% 29.99 in 10.0 mi Calm Calm - 0.00 in   Partly Cloudy